Regional Weather Roundup
Issued by NWS

Home | Current Version | Previous Version | Text Only | Print | Product List | Glossary On
Versions: 1 2 3 4 5 6 7 8 9 10 11 12 13 14 15 16 17 18 19 20 21 22 23 24 25 26 27 28 29 30 31 32 33 34 35 36 37 38 39 40 41 42 43 44 45 46 47 48 49 50
000
ASUS45 KPSR 161910
RWRAZ

ARIZONA REGIONAL HOURLY WEATHER ROUNDUP
NATIONAL WEATHER SERVICE PHOENIX AZ
1200 PM MST WED APR 16 2014

NOTE: FAIR INDICATES FEW OR NO CLOUDS BELOW 12,000 FEET WITH NO
SIGNIFICANT WEATHER AND/OR OBSTRUCTIONS TO VISIBILITY.

AZZ001>003-036-162000-
NORTHWEST ARIZONA

CITY           SKY/WX    TMP DP  RH WIND       PRES   REMARKS
BULLHEAD CITY  SUNNY     84  14   7 W6        29.75F
KINGMAN        SUNNY     79  11   7 S9        29.85F
$$

AZZ004>008-015-016-018-162000-
NORTH CENTRAL ARIZONA

CITY           SKY/WX    TMP DP  RH WIND       PRES   REMARKS
GRAND CANYON   CLOUDY    60   8  12 VRB5      29.99S
WILLIAMS       SUNNY     64   9  11 W9        30.05S
PRESCOTT       SUNNY     71  13  10 VRB5      29.91F
FLAGSTAFF      MOSUNNY   64   9  11 W12G21    29.98F
PAYSON         SUNNY     70   9   9 SW12G18   29.94F
PAGE           CLOUDY    65  18  16 N10       29.91S
$$

AZZ009>014-017-162000-
NORTHEAST ARIZONA

CITY           SKY/WX    TMP DP  RH WIND       PRES   REMARKS
WINSLOW        MOSUNNY   71  10   9 NE7       29.89F
SAINT JOHNS    SUNNY     69   4   7 NW12G18   29.91F
WINDOW ROCK    PTSUNNY   66   4   8 W15G21    29.94F
SHOW LOW       SUNNY     64   5   9 CALM      29.97F
$$

AZZ023-162000-
GREATER PHOENIX AREA

CITY           SKY/WX    TMP DP  RH WIND       PRES   REMARKS
PHOENIX        MOSUNNY   84  10   6 VRB3      29.75F
BUCKEYE          N/A     82  23  11 S8        29.77F
GLENDALE       MOSUNNY   84  19   9 S3        29.77F
LUKE AFB       NOT AVBL
DEER VALLEY    SUNNY     83  12   7 VRB6      29.77F
SCOTTSDALE     SUNNY     82  20  10 SW6       29.79F
MESA-GATEWAY   SUNNY     84  18   8 SW7       29.79F
CHANDLER       SUNNY     84  16   8 SW7       29.77
$$

AZZ027-028-162000-
SOUTHWEST MARICOPA COUNTY AND PINAL COUNTY

CITY           SKY/WX    TMP DP  RH WIND       PRES   REMARKS
CASA GRANDE    SUNNY     82  23  11 CALM      29.79F
GILA BEND      PTCLDY    90  19   7 NW1       29.77F
$$

AZZ503-504-507>509-162000-
SOUTHEAST ARIZONA

CITY           SKY/WX    TMP DP  RH WIND       PRES   REMARKS
TUCSON         SUNNY     81  -1   4 VRB3      29.85F
DAVIS-MONTHAN  SUNNY     81   8   6 VRB5      29.83F
RYAN FIELD       N/A     82  10   6 W6        29.84F
NOGALES        SUNNY     80   7   6 W8        29.89F
SIERRA VISTA   SUNNY     77   0   5 NW7G18    29.91F
DOUGLAS        SUNNY     80  -9   3 SW12G23   29.89F
SAFFORD        SUNNY     80   5   5 NW9       29.82F
$$

AZZ020-021-025-026-031-162000-
SOUTHWEST ARIZONA

CITY           SKY/WX    TMP DP  RH WIND       PRES   REMARKS
YUMA           SUNNY     87  35  15 W8        29.74F
$$

CAZ031-033-041-043-047-048-061-162000-
SOUTHERN CALIFORNIA

CITY           SKY/WX    TMP DP  RH WIND       PRES   REMARKS
DOWNTOWN L.A.  SUNNY     70  51  51 VRB3      29.84F
L.A. AIRPORT   SUNNY     65  52  62 SW9       29.86F
SAN DIEGO      MOSUNNY   63  50  62 S7        29.87F
BURBANK        SUNNY     69  49  48 CALM      29.84F
ONTARIO        SUNNY     69  47  45 S5        29.84F
RIVERSIDE      SUNNY     70  46  42 W7        29.84F
PALM SPRINGS   SUNNY     89  23   9 NE7       29.74S
EL CENTRO NAS  SUNNY     88  33  14 VRB7      29.71F
IMPERIAL       SUNNY     87  29  12 CALM      29.71F
BLYTHE         SUNNY     88  28  11 VRB3      29.74F
NEEDLES        SUNNY     86  23  10 SE3       29.75F
$$

NVZ020-UTZ003-162000-
SOUTHERN NEVADA-UTAH

CITY           SKY/WX    TMP DP  RH WIND       PRES   REMARKS
LAS VEGAS      MOSUNNY   78  12   8 VRB5      29.78F
SALT LAKE CITY PTSUNNY   54  17  23 NW3       30.02S
$$

NMZ009-TXZ055-162000-
NEW MEXICO-WEST TEXAS

CITY           SKY/WX    TMP DP  RH WIND       PRES   REMARKS
ALBUQUERQUE    MOSUNNY   67   8  10 E5        29.87F
EL PASO        MOSUNNY   77   8   7 W9        29.85F
$$


........................KEY........................
SKY/WX - SKY CONDITION/WEATHER
TMP    - TEMPERATURE IN FAHRENHEIT
DP     - DEW POINT IN FAHRENHEIT
RH     - RELATIVE HUMIDITY IN PERCENT
WIND   - DIRECTION AND SPEED IN MILES PER HOUR (MPH)
VRB    - VARIABLE WIND DIRECTION
PRES   - MEAN SEA LEVEL PRESSURE IN INCHES OF MERCURY
         F - FALLING PRESSURE   R - RISING PRESSURE
         S - STEADY PRESSURE
VSB    - VISIBILITY IN MILES
HX     - HEAT INDEX IN FAHRENHEIT
WCI    - WIND CHILL INDEX IN FAHRENHEIT
TC     - TEMPERATURE IN CELSIUS WHICH IS ALSO KNOWN AS
         TEMPERATURE IN CENTIGRADE
AFB    - AIR FORCE BASE
         LUKE AFB IS LUKE AIR FORCE BASE
         DAVIS-MONTHAN IS DAVIS-MONTHAN AIR FORCE BASE
NAS    - NAVAL AIR STATION
         EL CENTRO NAS IS EL CENTRO NAVAL AIR STATION
N/A    - NOT AVAILABLE



USA.gov is the U.S. government's official web portal to all federal, state and local government web resources and services.